Three Rivers, MI

11:06 PM EDT on May 27, 2017 (GMT -0400)
Three Rivers Municipal-Haines

Weather History for KHAI - September, 2012

Change the Weather History Date:

Saturday, September 8, 2012

  Actual Average Record
Temperature  
Mean Temperature 61 °F -  
Max Temperature 69 °F 80 °F 95 °F (1960)
Min Temperature 53 °F 54 °F 37 °F (1986)
Degree Days  
Heating Degree Days 4    
Growing Degree Days 11 (Base 50)    
Moisture  
Dew Point 52 °F    
Average Humidity 74    
Maximum Humidity 93    
Minimum Humidity 47    
Precipitation  
Precipitation 0.00 in - - ()
Sea Level Pressure  
Sea Level Pressure 29.82 in    
Wind  
Wind Speed 6 mph (NW)    
Max Wind Speed 16 mph    
Max Gust Speed 23 mph    
Visibility 10 miles    
Events Rain    
Averages and records for this station are not official NWS values.
T = Trace of Precipitation, MM = Missing Value Source: NWS Daily Summary

Daily Weather History Graph

Daily Weather History Graph

Search for Another Location

Airport or City:

Trip Planner

Search our weather history database for the weather conditions in past years. The results will help you decide how hot, cold, wet, or windy it might be!

Date:

Astronomy

Sep. 08, 2012 Rise Set
Actual Time 7:15 AM EDT 8:03 PM EDT
Civil Twilight 6:47 AM EDT 8:31 PM EDT
Nautical Twilight 6:13 AM EDT 9:04 PM EDT
Astronomical Twilight 5:39 AM EDT 9:39 PM EDT
Moon No Moon Rise 3:03 PM EDT (9/8)
Length of Visible Light 13h 43m
Length of Day
12h 47m
Waning Gibbous, 49% of the Moon is Illuminated
Sep 8
Waning Gibbous
Sep 15
New
Sep 22
First Quarter
Sep 29
Full
Oct 8
Last Quarter

Hourly Weather History & Observations

Time (EDT) Temp. Dew Point Humidity Pressure Visibility Wind Dir Wind Speed Gust Speed Precip Events Conditions
12:34 AM 59.0 °F 56.3 °F 91% 29.76 in 10.0 mi North 4.6 mph - N/A Rain Light Rain
12:55 AM 58.8 °F 55.8 °F 90% 29.77 in 10.0 mi North 3.5 mph - N/A Rain Light Rain
1:14 AM 58.5 °F 55.8 °F 91% 29.76 in 10.0 mi NNW 4.6 mph - N/A Rain Light Rain
1:34 AM 58.3 °F 55.6 °F 91% 29.77 in 10.0 mi NNW 5.8 mph - N/A   Overcast
1:55 AM 58.1 °F 55.6 °F 91% 29.76 in 10.0 mi North 4.6 mph - N/A   Overcast
2:14 AM 58.1 °F 55.4 °F 91% 29.76 in 10.0 mi North 4.6 mph - N/A   Overcast
2:34 AM 57.9 °F 54.9 °F 90% 29.76 in 10.0 mi NNW 4.6 mph - N/A   Overcast
2:54 AM 57.7 °F 55.0 °F 91% 29.75 in 10.0 mi NNW 5.8 mph - N/A   Overcast
3:14 AM 57.6 °F 55.0 °F 91% 29.76 in 10.0 mi NW 5.8 mph - N/A   Overcast
3:34 AM 57.4 °F 54.9 °F 91% 29.76 in 10.0 mi NW 6.9 mph - N/A   Overcast
3:54 AM 57.4 °F 54.7 °F 91% 29.77 in 10.0 mi NW 6.9 mph - N/A   Mostly Cloudy
4:14 AM 57.2 °F 54.5 °F 91% 29.77 in 10.0 mi NW 3.5 mph - N/A   Scattered Clouds
4:34 AM 56.1 °F 53.4 °F 91% 29.77 in 10.0 mi WNW 3.5 mph - N/A   Scattered Clouds
4:54 AM 55.6 °F 53.1 °F 91% 29.76 in 10.0 mi Calm Calm - N/A   Clear
5:14 AM 55.0 °F 52.7 °F 92% 29.75 in 10.0 mi NNW 3.5 mph - N/A   Clear
5:35 AM 54.7 °F 52.5 °F 92% 29.75 in 10.0 mi Calm Calm - N/A   Clear
5:54 AM 54.5 °F 52.2 °F 92% 29.75 in 10.0 mi NW 3.5 mph - N/A   Clear
6:14 AM 54.1 °F 52.0 °F 92% 29.75 in 10.0 mi Calm Calm - N/A   Clear
6:35 AM 53.8 °F 51.8 °F 93% 29.77 in 10.0 mi WNW 3.5 mph - N/A   Scattered Clouds
6:54 AM 54.0 °F 52.0 °F 93% 29.77 in 10.0 mi Calm Calm - N/A   Scattered Clouds
7:14 AM 54.1 °F 52.2 °F 93% 29.78 in 10.0 mi NNW 3.5 mph - N/A   Clear
7:34 AM 54.0 °F 52.0 °F 93% 29.79 in 10.0 mi Calm Calm - N/A   Clear
7:54 AM 54.7 °F 52.7 °F 93% 29.80 in 10.0 mi NW 3.5 mph - N/A   Clear
8:14 AM 55.9 °F 53.6 °F 92% 29.81 in 10.0 mi WNW 3.5 mph - N/A   Clear
8:34 AM 57.6 °F 54.3 °F 89% 29.81 in 10.0 mi NNW 4.6 mph - N/A   Mostly Cloudy
8:54 AM 57.6 °F 54.0 °F 88% 29.82 in 10.0 mi WNW 5.8 mph - N/A   Mostly Cloudy
9:14 AM 58.5 °F 54.0 °F 85% 29.82 in 10.0 mi NNW 6.9 mph - N/A   Mostly Cloudy
9:34 AM 59.9 °F 54.1 °F 81% 29.83 in 10.0 mi NNW 6.9 mph - N/A   Mostly Cloudy
9:54 AM 62.1 °F 53.8 °F 74% 29.84 in 10.0 mi NW 8.1 mph - N/A   Mostly Cloudy
10:14 AM 62.8 °F 53.8 °F 72% 29.84 in 10.0 mi NNW 5.8 mph - N/A   Mostly Cloudy
10:34 AM 64.0 °F 54.3 °F 71% 29.84 in 10.0 mi NW 11.5 mph 17.3 mph N/A   Scattered Clouds
10:54 AM 62.6 °F 53.6 °F 72% 29.84 in 10.0 mi NNW 10.4 mph 18.4 mph N/A   Overcast
11:15 AM 64.0 °F 54.7 °F 72% 29.84 in 10.0 mi WNW 8.1 mph - N/A   Scattered Clouds
11:34 AM 65.8 °F 55.4 °F 69% 29.84 in 10.0 mi WNW 12.7 mph 18.4 mph N/A   Scattered Clouds
11:54 AM 66.4 °F 54.1 °F 65% 29.84 in 10.0 mi NW 11.5 mph 17.3 mph N/A   Scattered Clouds
12:15 PM 67.6 °F 54.0 °F 61% 29.83 in 10.0 mi NW 13.8 mph 19.6 mph N/A   Mostly Cloudy
12:34 PM 64.9 °F 53.6 °F 67% 29.83 in 10.0 mi NW 9.2 mph - N/A   Mostly Cloudy
12:54 PM 66.2 °F 52.0 °F 60% 29.83 in 10.0 mi WNW 16.1 mph 20.7 mph N/A   Mostly Cloudy
1:14 PM 69.3 °F 50.0 °F 50% 29.83 in 10.0 mi WNW 15.0 mph 21.9 mph N/A   Scattered Clouds
1:34 PM 68.9 °F 48.7 °F 49% 29.83 in 10.0 mi WNW 13.8 mph 23.0 mph N/A   Scattered Clouds
1:54 PM 69.8 °F 49.1 °F 48% 29.83 in 10.0 mi NW 11.5 mph 18.4 mph N/A   Scattered Clouds
2:14 PM 68.9 °F 51.4 °F 54% 29.83 in 10.0 mi NW 10.4 mph 23.0 mph N/A   Scattered Clouds
2:34 PM 68.5 °F 49.3 °F 50% 29.83 in 10.0 mi NW 10.4 mph 18.4 mph N/A   Scattered Clouds
2:54 PM 68.7 °F 51.1 °F 53% 29.83 in 10.0 mi NW 15.0 mph - N/A   Scattered Clouds
3:14 PM 69.8 °F 50.4 °F 50% 29.83 in 10.0 mi NNW 13.8 mph - N/A   Scattered Clouds
3:34 PM 67.8 °F 49.6 °F 52% 29.83 in 10.0 mi NW 13.8 mph 23.0 mph N/A   Scattered Clouds
3:54 PM 69.1 °F 49.8 °F 50% 29.83 in 10.0 mi NW 12.7 mph 17.3 mph N/A   Scattered Clouds
4:14 PM 69.8 °F 52.3 °F 54% 29.83 in 10.0 mi West 16.1 mph 20.7 mph N/A   Scattered Clouds
4:34 PM 68.7 °F 50.0 °F 51% 29.83 in 10.0 mi NW 13.8 mph 20.7 mph N/A   Scattered Clouds
4:55 PM 68.9 °F 51.1 °F 53% 29.83 in 10.0 mi WNW 9.2 mph 19.6 mph N/A   Mostly Cloudy
5:14 PM 69.8 °F 50.5 °F 50% 29.83 in 10.0 mi WNW 12.7 mph 20.7 mph N/A   Overcast
5:34 PM 68.0 °F 46.9 °F 47% 29.83 in 10.0 mi WNW 16.1 mph 21.9 mph N/A   Mostly Cloudy
5:55 PM 67.6 °F 46.9 °F 47% 29.83 in 10.0 mi WNW 16.1 mph 20.7 mph N/A   Clear
6:14 PM 66.0 °F 47.8 °F 52% 29.83 in 10.0 mi West 11.5 mph - N/A   Mostly Cloudy
6:34 PM 64.8 °F 48.4 °F 55% 29.85 in 10.0 mi NW 8.1 mph - N/A   Scattered Clouds
6:54 PM 66.2 °F 48.9 °F 54% 29.85 in 10.0 mi WNW 13.8 mph 18.4 mph N/A   Mostly Cloudy
7:14 PM 63.9 °F 49.1 °F 59% 29.86 in 10.0 mi WNW 10.4 mph - N/A   Scattered Clouds
7:34 PM 63.0 °F 49.6 °F 62% 29.86 in 10.0 mi WNW 4.6 mph - N/A   Clear
7:54 PM 62.8 °F 48.7 °F 60% 29.86 in 10.0 mi WNW 6.9 mph - N/A   Clear
8:14 PM 61.2 °F 48.9 °F 64% 29.86 in 10.0 mi WNW 4.6 mph - N/A   Clear
8:34 PM 58.8 °F 50.0 °F 73% 29.86 in 10.0 mi Calm Calm - N/A   Clear
8:54 PM 60.1 °F 49.8 °F 69% 29.87 in 10.0 mi Calm Calm - N/A   Clear
9:14 PM 59.2 °F 50.2 °F 72% 29.87 in 10.0 mi Calm Calm - N/A   Clear
9:35 PM 56.3 °F 50.9 °F 82% 29.87 in 10.0 mi South 3.5 mph - N/A   Clear
9:54 PM 55.6 °F 50.5 °F 83% 29.87 in 10.0 mi SSW 3.5 mph - N/A   Clear
10:14 PM 55.4 °F 49.8 °F 81% 29.87 in 10.0 mi Calm Calm - N/A   Scattered Clouds
10:35 PM 53.8 °F 49.6 °F 86% 29.87 in 10.0 mi Calm Calm - N/A   Clear
10:54 PM 53.6 °F 49.5 °F 86% 29.87 in 10.0 mi Calm Calm - N/A   Clear
11:14 PM 54.9 °F 50.0 °F 84% 29.87 in 10.0 mi Calm Calm - N/A   Clear
11:34 PM 53.6 °F 49.8 °F 87% 29.87 in 10.0 mi Calm Calm - N/A   Clear
11:54 PM 53.6 °F 49.3 °F 85% 29.87 in 10.0 mi Calm Calm - N/A   Clear